Location: Unspecified
(46.0725°N, 13.7344°E)
Time: 11:44:24
(UTC+02:00)

Cosmos 2058 - Pass Details

Date: 13 June 2024
Orbit: 545 x 564 km, 82.5° (Epoch: 16 July)

Event Time Altitude Azimuth Distance (km) Brightness Sun altitude
Rises 03:17:50 0° 138° (SE) 2,718 6.2 -14.5°
Reaches altitude 10° 03:21:07 10° 108° (ESE) 1,837 5.7 -14.2°
Maximum altitude 03:22:49 12° 83° (E) 1,691 5.8 -14.0°
Drops below altitude 10° 03:24:31 10° 58° (ENE) 1,849 6.6 -13.8°
Sets 03:27:51 0° 29° (NNE) 2,757 8.4 -13.5°
